,

(GMT )
Oslo

Wetter Verlauf für ENFB - April, 2017

Change the Weather History Date:

Freitag, April 21, 2017

  Actual Average Record
Temperature  
mittlereTemperatur 42 °F -  
Max. Temperatur 54 °F 48 °F 67 °F (2014)
Min.Temperatur 29 °F 34 °F 26 °F (2013)
Degree Days  
Heizgradtage 24    
Moisture  
Taupunkt 30 °F    
Average Humidity 63    
Maximum Humidity 87    
Minimum Humidity 16    
Niederschlag  
Niederschlag 0.01 inch - - ()
Luftdruck in Meereshöhe  
Luftdruck in Meereshöhe 29.94 inch    
Wind  
Windgeschwindigkeit 25 mph ()    
Max. Windgeschwindigkeit 46 mph    
Max Gust Speed 54 mph    
Sichtweite 6.0 Meilen    
Ereignisse Regen    
Averages and records for this station are not official NWS values.
T = Trace of Precipitation, MM = Missing Value Source: Averaged Metar Reports

Daily Weather History Graph

Daily Weather History Graph

Search for Another Location

Airport or City:

Trip Planner

Search our weather history database for the weather conditions in past years. The results will help you decide how hot, cold, wet, or windy it might be!

Date:

Astronomie

Apr. 21, 2017 Aufgang Untergang
Genaue Zeit 05:41 CEST 20:50 CEST
Bürgerliche Dämmerung 04:53 CEST 21:39 CEST
Nautische Dämmerung 03:45 CEST 22:48 CEST
Astronomische Dämmerung 01:27 CEST 00:42 CEST
Mond 04:31 CEST (4/21) 13:36 CEST (4/21)
Länge des sichtbaren Lichts 16h 46m
Tageslänge
15h 08m
Letztes Viertel, 30% of the Moon is Illuminated
Apr 21
Letztes Viertel
Apr 26
Neu
Mai 3
Erstes Viertel
Mai 10
Vollmond
Mai 19
Letztes Viertel

Hourly Weather History & Observations

Zeit (CEST) Temp. Windchill Taupunkt Feuchtigkeit Druck Sichtweite Wind Dir Windgeschwindigkeit Böengeschwindigkeit Precip Ereignisse Wetterzustand
12:00 AM 38 °F - 26 °F 50%  inch - Ost-Südost 2.2 mph - -  
12:20 AM 42.8 °F 30.7 °F 35.6 °F 76% 30.01 inch 6.2 mi West 41.4 mph - N/A Regen Leichter Regen
12:50 AM 44.6 °F 33.8 °F 37.4 °F 76% 29.98 inch 6.2 mi West 36.8 mph - N/A   Wolkig
1:00 AM 42 °F - 26 °F 41%  inch - Südwest 2.2 mph - -  
1:20 AM 42.8 °F 30.4 °F 37.4 °F 81% 29.98 inch 3.1 mi West 43.7 mph - N/A Regen Leichte Regenschauer
1:50 AM 44.6 °F 33.5 °F 37.4 °F 76% 29.98 inch 6.2 mi West 39.1 mph - N/A   Wolkig
2:00 AM 38 °F - 24 °F 46%  inch - Nordwest 4.5 mph - -  
2:20 AM 44.6 °F 33.3 °F 35.6 °F 71% 29.95 inch 6.2 mi West 40.3 mph - N/A   Wolkig
2:50 AM 44.6 °F 33.8 °F 39.2 °F 81% 29.95 inch 6.2 mi West 36.8 mph 52.9 mph N/A   Wolkig
3:00 AM 41 °F - 24 °F 39%  inch - Süd 4.5 mph - -  
3:20 AM 42.8 °F 31.3 °F 37.4 °F 81% 29.95 inch 6.2 mi West 36.8 mph - N/A Regen Leichte Regenschauer
3:50 AM 44.6 °F 33.5 °F 35.6 °F 71% 29.95 inch 6.2 mi West 39.1 mph - N/A   Wolkig
4:20 AM 44.6 °F 33.9 °F 37.4 °F 76% 29.92 inch 6.2 mi West 35.7 mph - N/A   Teils Wolkig
4:50 AM 44.6 °F 33.6 °F 35.6 °F 71% 29.92 inch 6.2 mi West 38.0 mph - N/A Regen Leichter Regen
5:00 AM 30 °F - 25 °F 76%  inch - Nord 2.2 mph - -  
5:20 AM 41.0 °F 30.5 °F 37.4 °F 87% 29.92 inch 6.2 mi West-Nordwest 26.5 mph - N/A   Wolkig
5:50 AM 42.8 °F 33.3 °F 37.4 °F 81% 29.92 inch 5.6 mi West-Nordwest 24.2 mph - N/A Regen Leichte Regenschauer
6:00 AM 30 °F - 26 °F 78%  inch - Süd-Südost 4.5 mph - -  
6:20 AM 39.2 °F 25.7 °F 35.6 °F 87% 29.89 inch 3.1 mi West-Nordwest 41.4 mph - N/A Regen Leichte Regenschauer
6:50 AM 41.0 °F 29.1 °F 33.8 °F 76% 29.89 inch 6.2 mi West 34.5 mph - N/A   Teils Wolkig
7:00 AM 32 °F - 27 °F 75%  inch - Ost 4.5 mph - -  
7:20 AM 41.0 °F 28.3 °F 33.8 °F 76% 29.89 inch 6.2 mi West-Nordwest 40.3 mph - N/A   Wolkig
7:50 AM 41.0 °F 28.0 °F 37.4 °F 87% 29.89 inch 5.6 mi West-Nordwest 42.6 mph 54.1 mph N/A Regen Leichter Regen
8:00 AM 42 °F - 29 °F 48%  inch - West-Nordwest 4.5 mph - -  
8:20 AM 41.0 °F 30.0 °F 35.6 °F 81% 29.89 inch 6.2 mi West-Nordwest 28.8 mph - N/A   Wolkig
8:50 AM 41.0 °F 29.3 °F 32.0 °F 70% 29.89 inch 6.2 mi West 33.4 mph - N/A   Wolkig
9:20 AM 41.0 °F 29.1 °F 33.8 °F 76% 29.86 inch 6.2 mi West-Nordwest 34.5 mph - N/A Regen Leichte Regenschauer
9:50 AM 41.0 °F 29.8 °F 33.8 °F 76% 29.89 inch 6.2 mi West-Nordwest 29.9 mph - N/A   Wolkig
10:00 AM 51 °F - 24 °F 22%  inch - West 6.7 mph - -  
10:20 AM 42.8 °F 32.5 °F 32.0 °F 66% 29.89 inch 6.2 mi West-Nordwest 28.8 mph - N/A   Wolkig
10:50 AM 42.8 °F 32.1 °F 32.0 °F 66% 29.89 inch 6.2 mi West-Nordwest 31.1 mph - N/A   Teils Wolkig
11:00 AM 52 °F - 23 °F 20%  inch - West 4.5 mph - -  
11:20 AM 39.2 °F 26.0 °F 30.2 °F 70% 29.89 inch 6.2 mi West-Nordwest 39.1 mph - N/A Regen Leichte Regenschauer
11:50 AM 39.2 °F 26.3 °F 32.0 °F 75% 29.89 inch 6.2 mi West-Nordwest 36.8 mph - N/A Regen Leichte Regenschauer
12:00 PM 53 °F - 22 °F 18%  inch - West-Südwest 2.2 mph - -  
12:20 PM 39.2 °F 25.5 °F 30.2 °F 70% 29.89 inch 6.2 mi West-Nordwest 42.6 mph - N/A   Wolkig
12:50 PM 41.0 °F 28.6 °F 28.4 °F 61% 29.89 inch 6.2 mi Nordwest 38.0 mph - N/A   Teils Wolkig
1:00 PM 52 °F - 19 °F 16%  inch - West-Südwest 2.2 mph - -  
1:20 PM 37.4 °F 24.0 °F 30.2 °F 75% 29.92 inch 6.2 mi Nordwest 35.7 mph - N/A Regen Leichte Regenschauer
1:50 PM 39.2 °F 25.5 °F 32.0 °F 75% 29.92 inch 6.2 mi Nordwest 42.6 mph - N/A   Wolkig
2:00 PM 54 °F - 21 °F 16%  inch - West-Südwest 2.2 mph - -  
2:20 PM 37.4 °F 22.8 °F 30.2 °F 75% 29.95 inch 6.2 mi Nordwest 43.7 mph - N/A Regen Leichte Regenschauer
2:50 PM 41.0 °F 28.2 °F 28.4 °F 61% 29.95 inch 6.2 mi Nordwest 41.4 mph - N/A   Wolkig
3:00 PM 49 °F - 22 °F 22%  inch - West 2.2 mph - -  
3:20 PM 41.0 °F 27.6 °F 26.6 °F 57% 29.92 inch 6.2 mi Nordwest 46.0 mph - N/A   Wolkig
3:50 PM 39.2 °F 25.7 °F 28.4 °F 65% 29.95 inch 6.2 mi Nordwest 41.4 mph - N/A   Wolkig
4:00 PM 49 °F - 18 °F 17%  inch - Süd 2.2 mph - -  
4:20 PM 39.2 °F 25.5 °F 28.4 °F 65% 29.95 inch 6.2 mi West-Nordwest 42.6 mph - N/A   Wolkig
4:50 PM 39.2 °F 26.0 °F 32.0 °F 75% 29.98 inch 6.2 mi Nordwest 39.1 mph - N/A Regen Leichte Regenschauer
5:00 PM 48 °F - 18 °F 18%  inch - West-Nordwest 2.2 mph - -  
5:20 PM 37.4 °F 23.0 °F 32.0 °F 81% 29.95 inch 6.2 mi Nordwest 42.6 mph - N/A Regen Leichte Regenschauer
5:50 PM 39.2 °F 25.7 °F 28.4 °F 65% 29.95 inch 6.2 mi Nordwest 41.4 mph - N/A   Wolkig
6:20 PM 37.4 °F 23.3 °F 30.2 °F 75% 29.98 inch 6.2 mi Nordwest 40.3 mph - N/A   Wolkig
6:50 PM 39.2 °F 26.1 °F 32.0 °F 75% 29.98 inch 6.2 mi Nordwest 38.0 mph - N/A   Wolkig
7:00 PM 44 °F - 17 °F 20%  inch - Ruhig Ruhig - -  
7:20 PM 39.2 °F 25.5 °F 32.0 °F 75% 29.98 inch 6.2 mi Nordwest 42.6 mph - N/A   Wolkig
7:50 PM 39.2 °F 25.7 °F 33.8 °F 81% 29.98 inch 6.2 mi Nordwest 41.4 mph - N/A   Wolkig
8:00 PM 42 °F - 15 °F 20%  inch - Ruhig Ruhig - -  
8:20 PM 39.2 °F 25.8 °F 33.8 °F 81% 29.98 inch 6.2 mi Nordwest 40.3 mph - N/A   Wolkig
8:50 PM 41.0 °F 28.3 °F 33.8 °F 76% 29.98 inch 6.2 mi Nordwest 40.3 mph - N/A   Wolkig
9:00 PM 39 °F - 17 °F 28%  inch - Nordwest 2.2 mph - -  
9:20 PM 41.0 °F 28.3 °F 33.8 °F 76% 29.98 inch 6.2 mi Nordwest 40.3 mph - N/A   Wolkig
9:50 PM 39.2 °F 26.0 °F 33.8 °F 81% 29.98 inch 6.2 mi Nordwest 39.1 mph - N/A   Wolkig
10:00 PM 37 °F - 15 °F 27%  inch - West 4.5 mph - -  
10:20 PM 41.0 °F 28.5 °F 35.6 °F 81% 29.98 inch 6.2 mi Nordwest 39.1 mph - N/A   Wolkig
10:50 PM 41.0 °F 28.5 °F 35.6 °F 81% 29.98 inch 6.2 mi Nordwest 39.1 mph - N/A   Wolkig
11:00 PM 36 °F - 17 °F 31%  inch - West 6.7 mph - -  
11:20 PM 41.0 °F 28.3 °F 35.6 °F 81% 29.98 inch 6.2 mi Nordwest 40.3 mph - N/A   Wolkig
11:50 PM 41.0 °F 28.5 °F 35.6 °F 81% 29.98 inch 6.2 mi Nordwest 39.1 mph - N/A   Wolkig